Regional Weather Roundup
Issued by NWS

Home | Current Version | Previous Version | Text Only | Print | Product List | Glossary Off
Versions: 1 2 3 4 5 6 7 8 9 10 11 12 13 14 15 16 17 18 19 20 21 22 23 24 25 26 27 28 29 30 31 32 33 34 35 36 37 38 39 40 41 42 43 44 45 46 47 48 49 50

000
ASUS43 KMKX 200620
RWRWI

WISCONSIN REGIONAL WEATHER ROUNDUP
NATIONAL WEATHER SERVICE MILWAUKEE/SULLIVAN WI
100 AM CDT SUN MAY 20 2018

NOTE: "FAIR" INDICATES FEW OR NO CLOUDS BELOW 12,000 FEET WITH NO
SIGNIFICANT WEATHER AND/OR OBSTRUCTIONS TO VISIBILITY.

WIZ001-002-006>008-014>016-023>028-200700-
NORTHWEST WISCONSIN

CITY           SKY/WX    TMP DP  RH WIND       PRES   REMARKS
SUPERIOR ARPT  FAIR      38  38  99 CALM      30.24R
6HR MIN TEMP:  38; 6HR MAX TEMP:  48;

ASHLAND        FAIR      37  34  89 N5        30.22S WCI  33
6HR MIN TEMP:  37; 6HR MAX TEMP:  51;

HAYWARD        FAIR      40  36  86 N3        30.19R
6HR MIN TEMP:  38; 6HR MAX TEMP:  50;

SIREN          FAIR      44  36  73 E3        30.20R
6HR MIN TEMP:  44; 6HR MAX TEMP:  53;

CUMBERLAND     FAIR      41  34  75 NE6       30.18R
RICE LAKE      FAIR      43  37  78 NE5       30.19R
6HR MIN TEMP:  43; 6HR MAX TEMP:  50;

CHETEK         FAIR      45  37  75 NE9       30.18R
6HR MIN TEMP:  45; 6HR MAX TEMP:  49;

LADYSMITH      FAIR      42  36  79 NE6       30.18S
6HR MIN TEMP:  42; 6HR MAX TEMP:  49;

EAU CLAIRE     CLOUDY    48  38  68 NE10      30.14R
6HR MIN TEMP:  48; 6HR MAX TEMP:  52;

MENOMONIE      CLOUDY    49  36  60 NE12      30.16R
6HR MIN TEMP:  49; 6HR MAX TEMP:  53;

NEW RICHMOND   MOCLDY    46  36  67 NE8       30.18R
6HR MIN TEMP:  46; 6HR MAX TEMP:  53;

OSCEOLA        FAIR      45  37  74 NE6       30.21R
6HR MIN TEMP:  45; 6HR MAX TEMP:  54;

$$

WIZ003>005-009-010-017-018-200700-
NORTH CENTRAL WISCONSIN

CITY           SKY/WX    TMP DP  RH WIND       PRES   REMARKS
MANITOWISH WTR MOCLDY    38  36  91 NE8       30.17R WCI  33
6HR MIN TEMP:  38; 6HR MAX TEMP:  42;

ARBOR VITAE    MOCLDY    42  37  83 N5        30.16R
6HR MIN TEMP:  42; 6HR MAX TEMP:  43;

WOODRUFF       MOCLDY    42  37  83 N5        30.16R
6HR MIN TEMP:  42; 6HR MAX TEMP:  43;

RHINELANDER    CLOUDY    43  37  79 MISG      30.16R
6HR MIN TEMP:  43; 6HR MAX TEMP:  44; 6HR PCP: TRACE;

EAGLE RIVER    CLOUDY    40  34  78 N9        30.16R WCI  34
6HR MIN TEMP:  40; 6HR MAX TEMP:  41;

LAND O LAKES   CLOUDY    40  35  83 N13G22    30.18S WCI  32
6HR MIN TEMP:  40; 6HR MAX TEMP:  41;

PHILLIPS       FAIR      39  35  87 NE7       30.16S WCI  34
6HR MIN TEMP:  38; 6HR MAX TEMP:  45;

TOMAHAWK       FAIR      41  35  79 NE7       30.16S
6HR MIN TEMP:  41; 6HR MAX TEMP:  44;

MEDFORD        CLOUDY    42  37  79 NE13      30.13F
6HR MIN TEMP:  42; 6HR MAX TEMP:  48;

MERRILL        CLOUDY    43  39  85 NE6       30.15S
6HR MIN TEMP:  43; 6HR MAX TEMP:  48;

$$

WIZ029-030-035-036-043>047-200700-
CENTRAL WISCONSIN

CITY           SKY/WX    TMP DP  RH WIND       PRES   REMARKS
WAUSAU         CLOUDY    45  39  79 NE8       30.12S
6HR MIN TEMP:  45; 6HR MAX TEMP:  56; 6HR PCP: TRACE;

MOSINEE        CLOUDY    45  37  76 NE14      30.14S
MARSHFIELD     CLOUDY    47  40  76 NE17G24   30.10F
6HR MIN TEMP:  47; 6HR MAX TEMP:  58;

STEVENS POINT  NOT AVBL
WAUPACA        CLOUDY    51  42  70 N6        30.12S
6HR MIN TEMP:  51; 6HR MAX TEMP:  74;

WAUTOMA        CLOUDY    52  43  71 NE14      30.10R
6HR MIN TEMP:  52; 6HR MAX TEMP:  77;

WISC RAPIDS    CLOUDY    50  41  71 NE14      30.10F
6HR MIN TEMP:  50; 6HR MAX TEMP:  67; 6HR PCP: TRACE;

CAMP DOUGLAS   LGT RAIN  50  46  87 N9        30.10R
6HR MIN TEMP:  51; 6HR MAX TEMP:  73; 6HR PCP:  0.27;

$$

WIZ011>013-019>022-031-037>040-048>050-200700-
NORTHEAST WISCONSIN

CITY           SKY/WX    TMP DP  RH WIND       PRES   REMARKS
ANTIGO         CLOUDY    41  38  89 N10       30.15S
6HR MIN TEMP:  41; 6HR MAX TEMP:  50;

SHAWANO        CLOUDY    49  40  73 N13G18    30.13S
6HR MIN TEMP:  49; 6HR MAX TEMP:  67;

OCONTO         CLOUDY    46  39  78 N7        30.12F
6HR MIN TEMP:  46; 6HR MAX TEMP:  59;

STURGEON BAY   CLOUDY    44  39  82 N18       30.12F
6HR MIN TEMP:  44; 6HR MAX TEMP:  55;

GREEN BAY      CLOUDY    49  41  74 NE14      30.11S
6HR MIN TEMP:  49; 6HR MAX TEMP:  62;

MANITOWOC      CLOUDY    48  40  73 N12       30.11R
6HR MIN TEMP:  47; 6HR MAX TEMP:  51;

APPLETON       CLOUDY    46  37  71 N13G18    30.09S
CLINTONVILLE   CLOUDY    48  38  68 NE9       30.13R
6HR MIN TEMP:  48; 6HR MAX TEMP:  67;

OSHKOSH        CLOUDY    52  44  74 NE15      30.09R
6HR MIN TEMP:  52; 6HR MAX TEMP:  69;

$$

WIZ032>034-041-042-053>061-200700-
SOUTHWEST WISCONSIN

CITY           SKY/WX    TMP DP  RH WIND       PRES   REMARKS
LA CROSSE      LGT RAIN  54  43  66 N10       30.09R
6HR MIN TEMP:  55; 6HR MAX TEMP:  70;

SPARTA         CLOUDY    51  44  76 NE9       30.11R
6HR MIN TEMP:  51; 6HR MAX TEMP:  72;

VIROQUA        CLOUDY    52  49  91 NE8       30.06R
6HR MIN TEMP:  52; 6HR MAX TEMP:  72; 6HR PCP:  0.01;

BOSCOBEL       LGT RAIN  60  55  83 NE6       30.03R
6HR MIN TEMP:  60; 6HR MAX TEMP:  76; 6HR PCP:  0.14;

PRAIRIE DU CHI CLOUDY    60  52  76 N6        30.03R
6HR MIN TEMP:  60; 6HR MAX TEMP:  75; 6HR PCP:  1.02;

PLATTEVILLE    CLOUDY    64  64 100 NE8       30.00R
6HR MIN TEMP:  64; 6HR MAX TEMP:  76; 6HR PCP:  0.53;

$$

WIZ056-057-062-063-064-067-068-200700-
SOUTH CENTRAL WISCONSIN

CITY           SKY/WX    TMP DP  RH WIND       PRES   REMARKS
REEDSBURG      CLOUDY    59  49  70 NE5       30.05R
6HR MIN TEMP:  59; 6HR MAX TEMP:  76; 6HR PCP:  0.16;

BARABOO/DELLS  CLOUDY    59  52  78 E12       30.06R
6HR MIN TEMP:  59; 6HR MAX TEMP:  76; 6HR PCP:  0.11;

LONE ROCK      LGT RAIN  59  56  89 NW7       30.04
6HR MIN TEMP:  59; 6HR MAX TEMP:  75; 6HR PCP:  0.03;

MINERAL POINT  LGT RAIN  59  59 100 N10       30.00F
MADISON        RAIN      56  54  93 E13       30.06R FOG
6HR MIN TEMP:  56; 6HR MAX TEMP:  72; 6HR PCP:  0.34;

MIDDLETON      CLOUDY    59  57  91 E10G16    30.05R
6HR MIN TEMP:  59; 6HR MAX TEMP:  74; 6HR PCP:  0.42;

WATERTOWN      CLOUDY    53  49  89 E13G18    30.06R
6HR MIN TEMP:  53; 6HR MAX TEMP:  70;

MONROE         DRIZZLE   63  61  94 N3        30.02R
JANESVILLE     MOCLDY    59  57  94 NE13G21   30.05R
$$

WIZ051-052-058>065-066-070>072-200700-
SOUTHEAST WISCONSIN

CITY           SKY/WX    TMP DP  RH WIND       PRES   REMARKS
MILWAUKEE      CLOUDY    47  41  80 NE13G20   30.08F
6HR MIN TEMP:  47; 6HR MAX TEMP:  63;

WAUKESHA       CLOUDY    46  41  81 E13G20    30.09S
MILWAUKEE/TIMM CLOUDY    45  37  76 NE10G21   30.09F
RACINE         CLOUDY    47  42  83 NE16G26   30.09F
6HR MIN TEMP:  46; 6HR MAX TEMP:  57;

BURLINGTON     CLOUDY    51  45  82 E12G20    30.06R
6HR MIN TEMP:  51; 6HR MAX TEMP:  68;

KENOSHA        CLOUDY    49  42  77 NE14      30.09R
6HR MIN TEMP:  48; 6HR MAX TEMP:  62;

FOND DU LAC    CLOUDY    54  46  74 NE13      30.08S
6HR MIN TEMP:  53; 6HR MAX TEMP:  72;

SHEBOYGAN      CLOUDY    46  42  86 NE12      30.09S
6HR MIN TEMP:  46; 6HR MAX TEMP:  56; 6HR PCP: TRACE;

WEST BEND      CLOUDY    46  43  87 E13       30.08S
JUNEAU         CLOUDY    52  45  77 NE14      30.07S
6HR MIN TEMP:  52; 6HR MAX TEMP:  71;

$$

LSZ147-162-200700-
LAKE SUPERIOR

STATION/POSITION TIME  TEMP    WIND        PRES    WAVE
                       AIR SEA DIR/SP/G            HT/PER
                 (UTC) (F)     (DEG/KT/KT) (MB)    (FT/S)
W MID LAKE BUOY  0550   38 36  170/  4/  6 1024.1R   2/ 4
DEVILS ISLAND    0600   40      20/  4/  5 1024.6R
SAXON HARBOR     0530   36     180/  3/  4 1022.4F
$$

LMZ867-665-643>646-200700-
LAKE MICHIGAN

STATION/POSITION TIME  TEMP    WIND        PRES    WAVE




USA.gov is the U.S. government's official web portal to all federal, state and local government web resources and services.